Time,TemperatureF,DewpointF,PressureIn,WindDirection,WindDirectionDegrees,WindSpeedMPH,WindSpeedGustMPH,Humidity,HourlyPrecipIn,Conditions,Clouds,dailyrainin,SoftwareType,DateUTC
2013-03-15 00:02:00,46.0,45.0,30.16,South,180,0.0,6.0,98,0.00,,,0.06,,2013-03-15 07:02:00,
2013-03-15 00:11:00,46.0,45.0,30.16,South,180,0.0,6.0,98,0.00,,,0.06,,2013-03-15 07:11:00,
2013-03-15 00:21:00,46.0,45.0,30.16,NW,315,0.0,2.0,98,0.00,,,0.06,,2013-03-15 07:21:00,
2013-03-15 00:32:00,46.0,45.0,30.16,ESE,112,0.0,1.0,98,0.00,,,0.06,,2013-03-15 07:32:00,
2013-03-15 00:42:00,46.0,45.0,30.16,ESE,112,0.0,1.0,98,0.00,,,0.06,,2013-03-15 07:42:00,
2013-03-15 00:52:00,46.0,45.0,30.17,NE,45,0.0,2.0,98,0.00,,,0.06,,2013-03-15 07:52:00,
2013-03-15 01:02:00,47.0,46.0,30.17,NNE,22,0.0,1.0,98,0.00,,,0.06,,2013-03-15 08:02:00,
2013-03-15 01:11:00,47.0,46.0,30.17,NNE,22,0.0,1.0,98,0.00,,,0.06,,2013-03-15 08:11:00,
2013-03-15 01:22:00,47.0,46.0,30.17,NE,45,0.0,2.0,98,0.00,,,0.06,,2013-03-15 08:22:00,
2013-03-15 01:32:00,47.0,46.0,30.18,ENE,67,0.0,1.0,98,0.00,,,0.06,,2013-03-15 08:32:00,
2013-03-15 01:41:00,47.0,46.0,30.18,ENE,67,0.0,1.0,98,0.00,,,0.06,,2013-03-15 08:41:00,
2013-03-15 01:52:00,47.0,46.0,30.18,North,-999,0.0,0.0,98,0.00,,,0.06,,2013-03-15 08:52:00,
2013-03-15 02:02:00,47.0,47.0,30.18,North,-999,0.0,0.0,99,0.00,,,0.06,,2013-03-15 09:02:00,
2013-03-15 02:11:00,47.0,47.0,30.18,North,-999,0.0,0.0,99,0.00,,,0.06,,2013-03-15 09:11:00,
2013-03-15 02:21:00,47.0,47.0,30.18,North,-999,0.0,0.0,99,0.00,,,0.06,,2013-03-15 09:21:00,
2013-03-15 02:33:00,47.0,47.0,30.18,North,-999,0.0,0.0,99,0.00,,,0.06,,2013-03-15 09:33:00,
2013-03-15 02:42:00,47.0,47.0,30.18,North,-999,0.0,0.0,99,0.00,,,0.06,,2013-03-15 09:42:00,
2013-03-15 02:52:00,47.0,47.0,30.18,NE,45,0.0,1.0,99,0.00,,,0.06,,2013-03-15 09:52:00,
2013-03-15 03:02:00,47.0,47.0,30.19,North,-999,0.0,0.0,99,0.00,,,0.06,,2013-03-15 10:02:00,
2013-03-15 03:12:00,47.0,47.0,30.19,North,-999,0.0,0.0,99,0.00,,,0.06,,2013-03-15 10:12:00,
2013-03-15 03:22:00,47.0,47.0,30.19,North,-999,0.0,0.0,99,0.00,,,0.06,,2013-03-15 10:22:00,
2013-03-15 03:32:00,47.0,47.0,30.19,North,-999,0.0,0.0,99,0.00,,,0.06,,2013-03-15 10:32:00,
2013-03-15 03:41:00,47.0,47.0,30.19,North,-999,0.0,0.0,99,0.00,,,0.06,,2013-03-15 10:41:00,
2013-03-15 03:51:00,47.0,47.0,30.18,SW,225,0.0,1.0,99,0.00,,,0.06,,2013-03-15 10:51:00,
2013-03-15 04:02:00,47.0,47.0,30.18,North,-999,0.0,0.0,99,0.00,,,0.06,,2013-03-15 11:02:00,
2013-03-15 04:11:00,47.0,47.0,30.18,North,-999,0.0,0.0,99,0.00,,,0.06,,2013-03-15 11:11:00,
2013-03-15 04:22:00,47.0,47.0,30.18,North,-999,0.0,0.0,99,0.00,,,0.06,,2013-03-15 11:22:00,
2013-03-15 04:32:00,47.0,47.0,30.18,North,-999,0.0,0.0,99,0.01,,,0.07,,2013-03-15 11:32:00,
2013-03-15 04:41:00,47.0,47.0,30.18,North,-999,0.0,0.0,99,0.01,,,0.07,,2013-03-15 11:41:00,
2013-03-15 04:51:00,47.0,47.0,30.18,SSW,202,0.0,1.0,99,0.01,,,0.07,,2013-03-15 11:51:00,
2013-03-15 05:01:00,47.0,47.0,30.18,SSW,202,0.0,1.0,99,0.01,,,0.07,,2013-03-15 12:01:00,
2013-03-15 05:11:00,47.0,47.0,30.17,North,-999,0.0,0.0,100,0.01,,,0.07,,2013-03-15 12:11:00,
2013-03-15 05:22:00,47.0,47.0,30.17,North,-999,0.0,0.0,100,0.01,,,0.07,,2013-03-15 12:22:00,
2013-03-15 05:32:00,47.0,47.0,30.17,NE,45,0.0,1.0,100,0.00,,,0.07,,2013-03-15 12:32:00,
2013-03-15 05:42:00,47.0,47.0,30.17,NE,45,0.0,1.0,100,0.00,,,0.07,,2013-03-15 12:42:00,
2013-03-15 05:52:00,47.0,47.0,30.17,SSW,202,0.0,1.0,100,0.00,,,0.07,,2013-03-15 12:52:00,
2013-03-15 06:01:00,47.0,47.0,30.17,SSW,202,0.0,1.0,100,0.00,,,0.07,,2013-03-15 13:01:00,
2013-03-15 06:12:00,47.0,47.0,30.17,SSW,202,0.0,1.0,100,0.00,,,0.07,,2013-03-15 13:12:00,
2013-03-15 06:22:00,47.0,47.0,30.17,North,-999,0.0,0.0,100,0.01,,,0.08,,2013-03-15 13:22:00,
2013-03-15 06:32:00,47.0,47.0,30.17,North,-999,0.0,0.0,100,0.01,,,0.08,,2013-03-15 13:32:00,
2013-03-15 06:42:00,47.0,47.0,30.17,North,-999,0.0,0.0,100,0.01,,,0.08,,2013-03-15 13:42:00,
2013-03-15 06:52:00,47.0,47.0,30.17,North,-999,0.0,0.0,100,0.01,,,0.08,,2013-03-15 13:52:00,
2013-03-15 07:01:00,47.0,47.0,30.17,North,-999,0.0,0.0,100,0.01,,,0.08,,2013-03-15 14:01:00,
2013-03-15 07:11:00,47.0,47.0,30.17,North,-999,0.0,0.0,100,0.01,,,0.08,,2013-03-15 14:11:00,
2013-03-15 07:22:00,47.0,47.0,30.18,NNW,337,0.0,1.0,100,0.00,,,0.08,,2013-03-15 14:22:00,
2013-03-15 07:32:00,47.0,47.0,30.18,North,-999,0.0,0.0,100,0.00,,,0.08,,2013-03-15 14:32:00,
2013-03-15 07:41:00,47.0,47.0,30.18,North,-999,0.0,0.0,100,0.00,,,0.08,,2013-03-15 14:41:00,
2013-03-15 07:51:00,47.0,47.0,30.18,NE,45,0.0,1.0,100,0.00,,,0.08,,2013-03-15 14:51:00,
2013-03-15 08:02:00,47.0,47.0,30.19,East,90,0.0,1.0,100,0.00,,,0.08,,2013-03-15 15:02:00,
2013-03-15 08:21:00,47.0,47.0,30.19,North,-999,0.0,0.0,100,0.00,,,0.08,,2013-03-15 15:21:00,
2013-03-15 08:32:00,47.0,47.0,30.19,North,-999,0.0,0.0,100,0.00,,,0.08,,2013-03-15 15:32:00,
2013-03-15 08:42:00,47.0,47.0,30.20,North,-999,0.0,0.0,100,0.00,,,0.08,,2013-03-15 15:42:00,
2013-03-15 08:52:00,47.0,47.0,30.20,North,-999,0.0,0.0,100,0.00,,,0.08,,2013-03-15 15:52:00,
2013-03-15 09:02:00,47.0,47.0,30.20,North,-999,0.0,0.0,100,0.00,,,0.08,,2013-03-15 16:02:00,
2013-03-15 09:12:00,47.0,47.0,30.20,North,0,0.0,1.0,100,0.00,,,0.08,,2013-03-15 16:12:00,
2013-03-15 09:22:00,47.0,47.0,30.20,North,0,0.0,1.0,100,0.00,,,0.08,,2013-03-15 16:22:00,
2013-03-15 09:32:00,48.0,48.0,30.21,North,-999,0.0,0.0,100,0.00,,,0.08,,2013-03-15 16:32:00,
2013-03-15 09:41:00,48.0,48.0,30.21,North,-999,0.0,0.0,100,0.00,,,0.08,,2013-03-15 16:41:00,
2013-03-15 09:52:00,48.0,48.0,30.21,North,0,0.0,1.0,100,0.00,,,0.08,,2013-03-15 16:52:00,
2013-03-15 10:01:00,49.0,49.0,30.22,NW,315,0.0,2.0,100,0.00,,,0.08,,2013-03-15 17:01:00,
2013-03-15 10:11:00,49.0,49.0,30.22,NW,315,0.0,2.0,100,0.00,,,0.08,,2013-03-15 17:11:00,
2013-03-15 10:22:00,49.0,49.0,30.22,NNE,22,0.0,2.0,100,0.00,,,0.08,,2013-03-15 17:22:00,
2013-03-15 10:32:00,49.0,49.0,30.22,NE,45,0.0,1.0,99,0.00,,,0.08,,2013-03-15 17:32:00,
2013-03-15 10:42:00,49.0,49.0,30.22,NE,45,0.0,1.0,99,0.00,,,0.08,,2013-03-15 17:42:00,
2013-03-15 10:52:00,50.0,50.0,30.22,North,-999,0.0,0.0,99,0.00,,,0.08,,2013-03-15 17:52:00,
2013-03-15 11:02:00,50.0,49.0,30.22,East,90,0.0,2.0,98,0.00,,,0.08,,2013-03-15 18:02:00,
2013-03-15 11:11:00,50.0,49.0,30.22,East,90,0.0,2.0,98,0.00,,,0.08,,2013-03-15 18:11:00,
2013-03-15 11:21:00,50.0,49.0,30.22,NE,45,1.0,4.0,97,0.00,,,0.08,,2013-03-15 18:21:00,
2013-03-15 11:31:00,51.0,50.0,30.22,NNE,22,0.0,3.0,97,0.00,,,0.08,,2013-03-15 18:31:00,
2013-03-15 11:41:00,51.0,50.0,30.22,NNE,22,0.0,3.0,97,0.00,,,0.08,,2013-03-15 18:41:00,
2013-03-15 11:52:00,51.0,50.0,30.22,SW,225,0.0,3.0,96,0.00,,,0.08,,2013-03-15 18:52:00,
2013-03-15 12:01:00,51.0,50.0,30.22,NNE,22,0.0,2.0,97,0.00,,,0.08,,2013-03-15 19:01:00,
2013-03-15 12:12:00,51.0,50.0,30.22,NNE,22,0.0,2.0,97,0.00,,,0.08,,2013-03-15 19:12:00,
2013-03-15 12:22:00,51.0,50.0,30.22,ENE,67,0.0,2.0,97,0.00,,,0.08,,2013-03-15 19:22:00,
2013-03-15 12:32:00,51.0,50.0,30.22,ENE,67,1.0,4.0,96,0.00,,,0.08,,2013-03-15 19:32:00,
2013-03-15 12:41:00,51.0,50.0,30.22,ENE,67,1.0,4.0,96,0.00,,,0.08,,2013-03-15 19:41:00,
2013-03-15 12:52:00,52.0,51.0,30.21,SSW,202,1.0,4.0,95,0.00,,,0.08,,2013-03-15 19:52:00,
2013-03-15 13:02:00,52.0,50.0,30.21,North,0,0.0,1.0,93,0.00,,,0.08,,2013-03-15 20:02:00,
2013-03-15 13:11:00,52.0,50.0,30.21,North,0,0.0,1.0,93,0.00,,,0.08,,2013-03-15 20:11:00,
2013-03-15 13:22:00,53.0,51.0,30.22,ENE,67,0.0,3.0,92,0.00,,,0.08,,2013-03-15 20:22:00,
2013-03-15 13:31:00,54.0,52.0,30.21,NW,315,0.0,2.0,94,0.00,,,0.08,,2013-03-15 20:31:00,
2013-03-15 13:41:00,54.0,52.0,30.21,NW,315,0.0,2.0,94,0.00,,,0.08,,2013-03-15 20:41:00,
2013-03-15 13:52:00,54.0,51.0,30.21,East,90,0.0,3.0,89,0.00,,,0.08,,2013-03-15 20:52:00,
2013-03-15 14:01:00,54.0,51.0,30.21,ENE,67,0.0,2.0,90,0.00,,,0.08,,2013-03-15 21:01:00,
2013-03-15 14:11:00,54.0,51.0,30.21,ENE,67,0.0,2.0,90,0.00,,,0.08,,2013-03-15 21:11:00,
2013-03-15 14:21:00,56.0,51.0,30.21,NE,45,1.0,3.0,83,0.00,,,0.08,,2013-03-15 21:21:00,
2013-03-15 14:32:00,55.0,50.0,30.21,ENE,67,1.0,5.0,83,0.00,,,0.08,,2013-03-15 21:32:00,
2013-03-15 14:42:00,55.0,50.0,30.21,ENE,67,1.0,5.0,83,0.00,,,0.08,,2013-03-15 21:42:00,
2013-03-15 14:52:00,56.0,51.0,30.19,ENE,67,1.0,4.0,83,0.00,,,0.07,,2013-03-15 21:52:00,
2013-03-15 15:02:00,55.0,50.0,30.19,SSE,157,0.0,1.0,84,0.00,,,0.06,,2013-03-15 22:02:00,
2013-03-15 15:12:00,55.0,50.0,30.19,SSE,157,0.0,1.0,84,0.00,,,0.06,,2013-03-15 22:12:00,
2013-03-15 15:22:00,55.0,50.0,30.19,NW,315,1.0,4.0,82,0.00,,,0.04,,2013-03-15 22:22:00,
2013-03-15 15:32:00,55.0,50.0,30.19,ENE,67,0.0,2.0,83,0.00,,,0.04,,2013-03-15 22:32:00,
2013-03-15 15:41:00,55.0,50.0,30.19,ENE,67,0.0,2.0,83,0.00,,,0.04,,2013-03-15 22:41:00,
2013-03-15 15:52:00,56.0,50.0,30.18,ENE,67,2.0,4.0,80,0.00,,,0.04,,2013-03-15 22:52:00,
2013-03-15 16:02:00,57.0,50.0,30.17,SW,225,1.0,3.0,76,0.00,,,0.04,,2013-03-15 23:02:00,
2013-03-15 16:11:00,57.0,50.0,30.17,SW,225,1.0,3.0,76,0.00,,,0.04,,2013-03-15 23:11:00,
2013-03-15 16:21:00,57.0,50.0,30.17,ENE,67,0.0,1.0,78,0.00,,,0.04,,2013-03-15 23:21:00,
2013-03-15 16:32:00,56.0,49.0,30.17,NW,315,1.0,4.0,76,0.00,,,0.04,,2013-03-15 23:32:00,
2013-03-15 16:42:00,56.0,49.0,30.17,NW,315,1.0,4.0,76,0.00,,,0.04,,2013-03-15 23:42:00,
2013-03-15 16:52:00,55.0,50.0,30.17,NE,45,0.0,5.0,82,0.00,,,0.04,,2013-03-15 23:52:00,
2013-03-15 17:02:00,55.0,50.0,30.17,ENE,67,0.0,2.0,84,0.00,,,0.04,,2013-03-16 00:02:00,
2013-03-15 17:11:00,55.0,50.0,30.17,ENE,67,0.0,2.0,84,0.00,,,0.04,,2013-03-16 00:11:00,
2013-03-15 17:22:00,56.0,51.0,30.16,ENE,67,0.0,2.0,83,0.00,,,0.04,,2013-03-16 00:22:00,
2013-03-15 17:32:00,56.0,51.0,30.16,SW,225,0.0,2.0,84,0.00,,,0.04,,2013-03-16 00:32:00,
2013-03-15 17:42:00,56.0,51.0,30.16,SW,225,0.0,2.0,84,0.00,,,0.04,,2013-03-16 00:42:00,
2013-03-15 17:52:00,55.0,51.0,30.16,SW,225,0.0,1.0,87,0.00,,,0.04,,2013-03-16 00:52:00,
2013-03-15 18:01:00,55.0,52.0,30.16,North,-999,0.0,0.0,88,0.00,,,0.04,,2013-03-16 01:01:00,
2013-03-15 18:12:00,55.0,52.0,30.16,North,-999,0.0,0.0,88,0.00,,,0.04,,2013-03-16 01:12:00,
2013-03-15 18:21:00,54.0,51.0,30.16,North,-999,0.0,0.0,89,0.00,,,0.04,,2013-03-16 01:21:00,
2013-03-15 18:31:00,53.0,50.0,30.15,East,90,0.0,2.0,90,0.00,,,0.04,,2013-03-16 01:31:00,
2013-03-15 18:41:00,53.0,50.0,30.15,East,90,0.0,2.0,90,0.00,,,0.04,,2013-03-16 01:41:00,
2013-03-15 18:52:00,52.0,50.0,30.16,North,-999,0.0,0.0,93,0.00,,,0.03,,2013-03-16 01:52:00,
2013-03-15 19:02:00,52.0,50.0,30.16,North,-999,0.0,0.0,94,0.00,,,0.03,,2013-03-16 02:02:00,
2013-03-15 19:11:00,52.0,50.0,30.16,North,-999,0.0,0.0,94,0.00,,,0.03,,2013-03-16 02:11:00,
2013-03-15 19:22:00,51.0,50.0,30.16,North,-999,0.0,0.0,96,0.00,,,0.03,,2013-03-16 02:22:00,
2013-03-15 19:32:00,51.0,50.0,30.15,North,-999,0.0,0.0,96,0.00,,,0.02,,2013-03-16 02:32:00,
2013-03-15 19:42:00,51.0,50.0,30.15,North,-999,0.0,0.0,96,0.00,,,0.02,,2013-03-16 02:42:00,
2013-03-15 19:52:00,50.0,49.0,30.15,North,-999,0.0,0.0,97,0.00,,,0.02,,2013-03-16 02:52:00,
2013-03-15 20:01:00,50.0,49.0,30.15,North,-999,0.0,0.0,97,0.00,,,0.02,,2013-03-16 03:01:00,
2013-03-15 20:11:00,50.0,49.0,30.15,North,-999,0.0,0.0,97,0.00,,,0.02,,2013-03-16 03:11:00,
2013-03-15 20:21:00,49.0,48.0,30.15,North,-999,0.0,0.0,97,0.00,,,0.02,,2013-03-16 03:21:00,
2013-03-15 20:32:00,49.0,48.0,30.15,North,-999,0.0,0.0,98,0.00,,,0.02,,2013-03-16 03:32:00,
2013-03-15 20:42:00,49.0,48.0,30.15,North,-999,0.0,0.0,98,0.00,,,0.02,,2013-03-16 03:42:00,
2013-03-15 20:52:00,49.0,49.0,30.15,North,-999,0.0,0.0,99,0.00,,,0.02,,2013-03-16 03:52:00,
2013-03-15 21:02:00,49.0,49.0,30.14,North,-999,0.0,0.0,99,0.00,,,0.02,,2013-03-16 04:02:00,
2013-03-15 21:12:00,49.0,49.0,30.14,North,-999,0.0,0.0,99,0.00,,,0.02,,2013-03-16 04:12:00,
2013-03-15 21:22:00,49.0,49.0,30.15,North,-999,0.0,0.0,99,0.00,,,0.02,,2013-03-16 04:22:00,
2013-03-15 21:32:00,49.0,49.0,30.15,North,-999,0.0,0.0,99,0.00,,,0.02,,2013-03-16 04:32:00,
2013-03-15 21:42:00,49.0,49.0,30.15,North,-999,0.0,0.0,99,0.00,,,0.02,,2013-03-16 04:42:00,
2013-03-15 21:52:00,49.0,48.0,30.15,NE,45,0.0,2.0,96,0.00,,,0.02,,2013-03-16 04:52:00,
2013-03-15 22:02:00,49.0,48.0,30.15,North,-999,0.0,0.0,96,0.00,,,0.02,,2013-03-16 05:02:00,
2013-03-15 22:12:00,49.0,48.0,30.15,North,-999,0.0,0.0,96,0.00,,,0.02,,2013-03-16 05:12:00,
2013-03-15 22:21:00,49.0,48.0,30.15,North,-999,0.0,0.0,97,0.00,,,0.02,,2013-03-16 05:21:00,
2013-03-15 22:31:00,49.0,48.0,30.15,North,-999,0.0,0.0,96,0.00,,,0.02,,2013-03-16 05:31:00,
2013-03-15 22:40:00,49.0,48.0,30.15,ESE,112,0.0,1.0,95,0.00,,,0.02,,2013-03-16 05:40:00,
2013-03-15 22:42:00,49.0,48.0,30.15,North,-999,0.0,0.0,96,0.00,,,0.02,,2013-03-16 05:42:00,
2013-03-15 22:52:00,49.0,48.0,30.15,WSW,247,0.0,1.0,96,0.00,,,0.02,,2013-03-16 05:52:00,
2013-03-15 23:02:00,49.0,48.0,30.15,ESE,112,0.0,1.0,95,0.00,,,0.02,,2013-03-16 06:02:00,
2013-03-15 23:11:00,49.0,48.0,30.15,ESE,112,0.0,1.0,95,0.00,,,0.02,,2013-03-16 06:11:00,
2013-03-15 23:21:00,49.0,48.0,30.15,ESE,112,0.0,1.0,95,0.00,,,0.02,,2013-03-16 06:21:00,
2013-03-15 23:32:00,49.0,48.0,30.15,ESE,112,0.0,1.0,95,0.00,,,0.02,,2013-03-16 06:32:00,
2013-03-15 23:52:00,48.0,47.0,30.14,WSW,247,0.0,1.0,95,0.00,,,0.02,,2013-03-16 06:52:00,